Regional Weather Roundup
Issued by NWS

Home | Current Version | Previous Version | Graphics & Text | Print | Product List | Glossary On
Versions: 1 2 3 4 5 6 7 8 9 10 11 12 13 14 15 16 17 18 19 20 21 22 23 24 25 26 27 28 29 30 31 32 33 34 35 36 37 38 39 40 41 42 43 44 45 46 47 48 49 50
000
ASUS43 KMPX 251501
RWRMN
WEATHER ROUNDUP FOR MINNESOTA
NATIONAL WEATHER SERVICE TWIN CITIES/CHANHASSEN MN
900 AM CST THU DEC 25 2014


NOTE: "FAIR" INDICATES FEW OR NO CLOUDS BELOW 12,000 FEET WITH NO
SIGNIFICANT WEATHER AND/OR OBSTRUCTIONS TO VISIBILITY. N/A MEANS
CURRENT SKY AND/OR WEATHER CONDITIONS ARE NOT AVAILABLE.

MNZ060>063-068>070-251600-
   Twin Cities Metro

CITY           SKY/WX    TMP DP  RH WIND       PRES   REMARKS
TWIN CITIES    CLOUDY    31  26  82 S5        29.70R WCI  26
ST PAUL        CLOUDY    31  27  85 S5        29.72R WCI  26
CRYSTAL        CLOUDY    32  27  81 S8        29.69R WCI  25
BLAINE         CLOUDY    32  30  93 MISG      29.69R
LAKEVILLE      CLOUDY    28  27  93 S5        29.70R FOG     WCI  23
EDEN PRAIRIE   CLOUDY    31  27  85 S8        29.69R WCI  23
SOUTH ST PAUL  CLOUDY    32  28  87 S5        29.71R WCI  27
LAKE ELMO      CLOUDY    32  28  86 S9        29.71R WCI  24
$$
MNZ001>005-007-008-013>017-022>024-027-028-251600-
   Northwest Minnesota

CITY           SKY/WX    TMP DP  RH WIND       PRES   REMARKS
BEMIDJI        CLOUDY    27  25  91 NW13      29.61R FOG     WCI  16
HALLOCK        CLOUDY    28  25  86 NW10      29.64R WCI  19
ROSEAU         CLOUDY    30  25  80 W9        29.59R WCI  22
WARROAD        CLOUDY    28  25  86 W8        29.59R WCI  20
THIEF RVR FALL CLOUDY    28  25  86 W12       29.64R WCI  18
CROOKSTON      CLOUDY    27  25  93 NW14      29.67R WCI  15
FOSSTON        CLOUDY    27  25  93 CALM      29.63S
DETROIT LAKES  CLOUDY    28  27  93 N9        29.65R FOG     WCI  20
MOORHEAD       CLOUDY    28  28 100 NW5       29.68R WCI  23
PARK RAPIDS    CLOUDY    30  27  88 W8        29.61R WCI  22
MAHNOMEN       CLOUDY    27  25  94 NW7       29.63R WCI  19
$$
MNZ006-009>011-018-025>026-251600-
   North Central Minnesota

CITY           SKY/WX    TMP DP  RH WIND       PRES   REMARKS
BAUDETTE       CLOUDY    29  25  85 SW5       29.57R WCI  24
FLAG ISLAND    CLOUDY    28  27  93 W8        29.55R WCI  20
INTL FALLS     CLOUDY    30  27  88 W7        29.56R WCI  23
WASKISH        CLOUDY    28  28 100 CALM      29.60R
BIG FORK       MIX PCPN  30  28  93 W5        29.59R WCI  25
LONGVILLE      CLOUDY    30  28  93 W3        29.61R FOG
GRAND RAPIDS   CLOUDY    30  25  80 W6        29.60R WCI  24
CRANE LAKE     CLOUDY    28  27  93 W7        29.60R WCI  21
ORR            CLOUDY    28  25  86 W8        29.55R WCI  20
COOK           CLOUDY    28  27  93 W6        29.58R WCI  22
WALKER         CLOUDY    29  26  88 W7G16     29.59R WCI  22
$$
MNZ012-019>021-037-251600-
   Northeast Minnesota

CITY           SKY/WX    TMP DP  RH WIND       PRES   REMARKS
DULUTH         CLOUDY    31  27  85 W14       29.60R WCI  21
ELY            CLOUDY    30  27  86 W6        29.56R WCI  24
HIBBING        CLOUDY    31  26  82 W5        29.59R WCI  26
EVELETH        CLOUDY    32  30  93 W8        29.60R WCI  25
DULUTH HARBOR  CLOUDY    34  28  80 SW13      29.65R WCI  25
TWO HARBORS    CLOUDY    36  28  75 SW10      29.59R
SILVER BAY     CLOUDY    34  28  80 SW6       29.58R WCI  29
GRAND MARAIS     N/A     34  29  82 W7        29.60R WCI  28
G MARAIS ARPRT CLOUDY    27  25  93 SW5       29.55R WCI  21
$$
MNZ029>031-032-039>041-046>048-054>057-064-251600-
   West Central Minnesota

CITY           SKY/WX    TMP DP  RH WIND       PRES   REMARKS
FERGUS FALLS   CLOUDY    27  27 100 NW8       29.68R WCI  18
WHEATON        CLOUDY    28  27  93 NW6       29.69R WCI  22
MORRIS         CLOUDY    30  28  93 CALM      29.65R FOG
ALEXANDRIA     CLOUDY    29  27  92 SW6       29.64R WCI  23
ELBOW LAKE     FAIR      28  27  96 NW6       29.65R WCI  22
WADENA         CLOUDY    28  28 100 W7        29.62R FOG     WCI  21
GLENWOOD       CLOUDY    28  28 100 SW7       29.65R WCI  21
APPLETON       CLOUDY    32  28  86 SW3       29.67R FOG
BENSON         MIX PCPN  30  28  93 W3        29.66R
ORTONVILLE     CLOUDY    30  27  86 NW3       29.66R
MADISON        LGT SNOW  34  34 100 CALM      29.66R
WILLMAR        LGT SNOW  30  28  93 CALM      29.67R
$$
MNZ033>034-036-042>043-049>051-058-059-251600-
   Central Minnesota

CITY           SKY/WX    TMP DP  RH WIND       PRES   REMARKS
ST CLOUD       CLOUDY    33  27  78 S8        29.66R WCI  26
SAUK CENTRE    CLOUDY    29  28  94 SW5       29.65R WCI  24
PAYNESVILLE    LGT SNOW  28  27  98 S5        29.66R WCI  22
AITKIN         CLOUDY    34  27  75 CALM      29.62R
PINE RIVER     CLOUDY    28  28 100 CALM      29.66R FOG
BRAINERD       CLOUDY    30  27  88 SW6       29.63R WCI  24
STAPLES        CLOUDY    28  27  93 SW7       29.63R WCI  21
LONG PRAIRIE   CLOUDY    28  28 100 W6        29.64R WCI  22
LITTLE FALLS   CLOUDY    30  27  86 S7        29.66R WCI  23
LITCHFIELD     CLOUDY    30  30 100 CALM      29.67R
BUFFALO        CLOUDY    31  28  88 S5        29.69R WCI  26
MAPLE LAKE     CLOUDY    32  30  93 S5        29.68R WCI  27
$$
MNZ037-044-045-052-053-251600-
   East Central Minnesota

CITY           SKY/WX    TMP DP  RH WIND       PRES   REMARKS
PRINCETON      CLOUDY    32  28  86 SW7       29.68R FOG     WCI  26
MORA           CLOUDY    32  28  86 SW7       29.67R WCI  26
CAMBRIDGE      CLOUDY    32  25  74 SW5       29.66R WCI  27
RUSH CITY      CLOUDY    31  27  86 SW7       29.68R WCI  24
MOOSE LAKE     CLOUDY    32  28  86 SW7       29.62R WCI  26
HINCKLEY       CLOUDY    32  30  93 CALM      29.66R
CLOQUET        CLOUDY    30  28  93 SW7       29.62R FOG     WCI  23
MCGREGOR       CLOUDY    32  28  86 SW5       29.63R WCI  27
$$
MNZ071>073-080-081-089-090-097-098-251600-
   Southwest Minnesota

CITY           SKY/WX    TMP DP  RH WIND       PRES   REMARKS
MONTEVIDEO     LGT SNOW  30  30 100 CALM      29.68R
GRANITE FALLS  LGT SNOW  31  29  93 CALM      29.68R
CANBY          CLOUDY    30  29  94 CALM      29.66S
MARSHALL       CLOUDY    30  27  86 CALM      29.64F
REDWOOD FALLS  CLOUDY    31  28  89 SE3       29.66R FOG
OLIVIA         CLOUDY    30  28  93 S5        29.67R WCI  25
PIPESTONE      CLOUDY    28  28 100 CALM      29.62R FOG
WINDOM           N/A     30  28  93 CALM      29.65R
WORTHINGTON    MOCLDY    28 -18  12 S6        29.63R WCI  22
JACKSON        CLOUDY    32  28  86 S6        29.64S WCI  26
TRACY          CLOUDY    31  29  93 CALM      29.64R
SLAYTON        CLOUDY    28  27  95 CALM      29.63S
$$
MNZ065>067-074>077-082>085-091>093-251600-
   South Central Minnesota

CITY           SKY/WX    TMP DP  RH WIND       PRES   REMARKS
MANKATO        CLOUDY    30  27  86 S8        29.68R WCI  23
NEW ULM        CLOUDY    30  28  93 SE3       29.67R
ST JAMES       CLOUDY    32  28  86 SE6       29.68R WCI  26
FAIRMONT       CLOUDY    30  27  86 S12       29.66R WCI  21
GLENCOE        CLOUDY    32  31  95 S5        29.68R FOG     WCI  27
FARIBAULT      CLOUDY    30  28  93 S6        29.70R FOG     WCI  24
OWATONNA       MOCLDY    30  28  93 S9        29.69R WCI  22
ALBERT LEA     MOCLDY    30  28  93 S8        29.69R WCI  23
$$
MNZ078>079-086>088-094>096-251600-
   Southeast Minnesota

CITY           SKY/WX    TMP DP  RH WIND       PRES   REMARKS
ROCHESTER      CLOUDY    30  27  88 S15       29.72R WCI  19
RED WING       CLOUDY    32  28  86 S6        29.72R WCI  26
STANTON        CLOUDY    32  28  86 S9        29.70R FOG     WCI  24
DODGE CENTER   CLOUDY    30  28  93 S14       29.70R WCI  20
WINONA         CLOUDY    34  30  86 S5        29.77R WCI  30
AUSTIN         CLOUDY    30  28  93 S12       29.70S WCI  21
PRESTON        CLOUDY    29  27  92 S15       29.74R FOG     WCI  18
$$
ABBREVIATIONS USED IN REMARKS
   TC - TEMPERATURES IN CELSIUS
  WCI - WIND CHILL INDEX
   HX - HEAT INDEX
  VSB - VISIBILITY
$$


USA.gov is the U.S. government's official web portal to all federal, state and local government web resources and services.